"Pseudo-MPEC" for A116Xh6

Created 2024 Jun 19 15:22:02 UT using Find_Orb

Click here for an explanation of pseudo-MPECs

 
 Astrometry: 
     A116Xh6* C2024 05 27/Vr!6gwC$hPI1wDW,qS\*1W@D;R':Astrometry?jJkl`XC)7fY7W68
     A116Xh6  C2024 05 275Eh3O_/1Credacted;@hd)EC[5nM[T_%8PkqhZpVGL_`5q*U_nsCW68
     A116Xh6  C2024 05 27dr@y.hCw@H5Jm`8'WI)].isYs(sA_N696%sZ9\kd*QV1bYnFB^s!W68
     A116Xh6  C2024 05 27W!NSWD8,[+B:%V9-\w8mb!W!H;N$LOR%-wrm2#5L(Fh!9O76A*xvW68
     A116Xh6  C2024 05 281UwYpK7CUjbAtUSxD%ZDG[]PssqWLnh'ERK9O]QBclickXQ1XOj8X09
     A116Xh6  C2024 05 28tkNWAG+m$W;G8`Ije?kTKg2Qx/nB!hhere4Oy/P*VU;qVTXYDCOiX09
     A116Xh6  C2024 05 28)CVpNuH7Cj81Xh0Brox'0pfor]dNcKF[n)$KyR!iCl[.$#rFvgE#X09
     A116Xh6  C2024 05 28R;;pC1YHW:=arB`Jvms.)[f,S3\uX`'MUwpfWrDK5+D1EHaaZIyoX09
     A116Xh6  C2024 05 286+I#hx[(%b]XIY*G_tR)+RQGexplanation9G[=FQSRVtRkVWS93X09

Station data:
(W68) ATLAS Chile, Rio Hurtado  (S30.471010 W70.764980)  Chile.  Observers L.
   Denneau, R. Siverd, J. Tonry, H. Weiland. Measurers L. Denneau, N.
   Erasmus, A. Fitzsimmons, A. Lawrence, J. Robinson, R. Siverd, J. Tonry, H.
   Weiland. 0.5-m reflector + CCD.
(X09) Deep Random Survey, Rio Hurtado  (S30.526310 W70.853300)  Chile.

Orbital elements:  A116Xh6
   Perigee 2024 May 27.98776 +/- 3.71e-5 TT = 23:42:22 (JD 2460458.48776)
Epoch 2024 May 28.0 TT = JDT 2460458.5                           AutoNEOCP
q487570.253 +/- 140                 (J2000 equator)
H   27.77 G 0.15                    Peri.  250.59706 +/- 0.0021
                                    Node    68.38657 +/- 0.00010
e 119.6592933 +/- 0.104             Incl.   95.74217 +/- 0.00010
From 9 observations 2024 May 27-28 (28.0 hr); mean residual 1".06
Residuals in arcseconds: 
240527 W68  .28-  .83-    240527 W68  .05+  .34+    240528 X09  1.9+  .55-    
240527 W68  .11+  1.4+    240528 X09  .25+  1.4+    240528 X09  .39+  1.0+    
240527 W68  .12+  .79-    240528 X09  2.6-  1.1-    240528 X09  .21-  1.2-    

Ephemerides (geocentric):
Date (UTC) HH   RA             Dec           delta  r     elong  mag " sig PA
---- --------  ------------   ------------  ------ ------ -----  --- --------
2024 06 19 15  04 43 36.531   -18 09 49.16  .13033 .92844  44.9 28?? 2.46 174
2024 06 19 16  04 43 36.986   -18 09 10.97  .13057 .92830  44.9 28?? 2.46 174
2024 06 19 17  04 43 37.444   -18 08 32.77  .13082 .92815  45.0 28?? 2.46 174
2024 06 19 18  04 43 37.905   -18 07 54.54  .13106 .92801  45.0 28?? 2.45 174
2024 06 19 19  04 43 38.369   -18 07 16.30  .13131 .92787  45.0 28?? 2.45 174
2024 06 19 20  04 43 38.835   -18 06 38.04  .13155 .92773  45.0 28?? 2.45 174
2024 06 19 21  04 43 39.305   -18 05 59.76  .13180 .92759  45.0 28?? 2.45 174
2024 06 19 22  04 43 39.777   -18 05 21.46  .13204 .92744  45.0 28?? 2.45 174
2024 06 19 23  04 43 40.253   -18 04 43.15  .13229 .92730  45.0 28?? 2.45 174
2024 06 20 00  04 43 40.731   -18 04 04.81  .13254 .92716  45.0 28?? 2.45 174
2024 06 20 01  04 43 41.212   -18 03 26.45  .13278 .92702  45.0 28?? 2.45 174
2024 06 20 02  04 43 41.696   -18 02 48.07  .13303 .92688  45.0 28?? 2.45 174
2024 06 20 03  04 43 42.184   -18 02 09.68  .13327 .92674  45.0 28?? 2.45 173
2024 06 20 04  04 43 42.674   -18 01 31.26  .13352 .92659  45.0 28?? 2.45 173
2024 06 20 05  04 43 43.167   -18 00 52.82  .13377 .92645  45.0 28?? 2.45 173
2024 06 20 06  04 43 43.663   -18 00 14.36  .13401 .92631  45.0 28?? 2.45 173
2024 06 20 07  04 43 44.162   -17 59 35.88  .13426 .92617  45.0 28?? 2.45 173
2024 06 20 08  04 43 44.664   -17 58 57.38  .13450 .92603  45.0 28?? 2.44 173
2024 06 20 09  04 43 45.169   -17 58 18.86  .13475 .92589  45.1 28?? 2.44 173
2024 06 20 10  04 43 45.676   -17 57 40.32  .13500 .92575  45.1 28?? 2.44 173
2024 06 20 11  04 43 46.187   -17 57 01.76  .13524 .92561  45.1 28?? 2.44 173
2024 06 20 12  04 43 46.701   -17 56 23.17  .13549 .92547  45.1 28?? 2.44 173
2024 06 20 13  04 43 47.218   -17 55 44.57  .13574 .92533  45.1 28?? 2.44 173
2024 06 20 14  04 43 47.738   -17 55 05.94  .13598 .92519  45.1 28?? 2.44 173
2024 06 20 15  04 43 48.261   -17 54 27.29  .13623 .92505  45.1 28?? 2.44 173
2024 06 20 16  04 43 48.787   -17 53 48.62  .13647 .92491  45.1 28?? 2.44 173
2024 06 20 17  04 43 49.316   -17 53 09.93  .13672 .92477  45.1 28?? 2.44 173
2024 06 20 18  04 43 49.848   -17 52 31.22  .13697 .92463  45.1 28?? 2.44 173
2024 06 20 19  04 43 50.383   -17 51 52.48  .13721 .92449  45.1 28?? 2.44 173
2024 06 20 20  04 43 50.921   -17 51 13.72  .13746 .92435  45.1 28?? 2.44 173
2024 06 20 21  04 43 51.462   -17 50 34.94  .13771 .92421  45.1 28?? 2.43 173
2024 06 20 22  04 43 52.006   -17 49 56.14  .13795 .92407  45.1 28?? 2.43 173
2024 06 20 23  04 43 52.553   -17 49 17.32  .13820 .92393  45.1 28?? 2.43 173
2024 06 21 00  04 43 53.104   -17 48 38.47  .13845 .92379  45.1 28?? 2.43 173
2024 06 21 01  04 43 53.657   -17 47 59.60  .13869 .92365  45.2 28?? 2.43 173
2024 06 21 02  04 43 54.213   -17 47 20.70  .13894 .92351  45.2 28?? 2.43 173
2024 06 21 03  04 43 54.773   -17 46 41.79  .13919 .92337  45.2 28?? 2.43 173
2024 06 21 04  04 43 55.335   -17 46 02.85  .13943 .92323  45.2 28?? 2.43 173
2024 06 21 05  04 43 55.901   -17 45 23.88  .13968 .92309  45.2 28?? 2.43 173
2024 06 21 06  04 43 56.470   -17 44 44.90  .13993 .92295  45.2 28?? 2.43 173
2024 06 21 07  04 43 57.042   -17 44 05.89  .14017 .92282  45.2 28?? 2.43 173
2024 06 21 08  04 43 57.617   -17 43 26.85  .14042 .92268  45.2 28?? 2.43 173
2024 06 21 09  04 43 58.195   -17 42 47.80  .14067 .92254  45.2 28?? 2.43 173
2024 06 21 10  04 43 58.776   -17 42 08.71  .14091 .92240  45.2 28?? 2.42 173
2024 06 21 11  04 43 59.360   -17 41 29.61  .14116 .92226  45.2 28?? 2.42 173
2024 06 21 12  04 43 59.948   -17 40 50.48  .14141 .92212  45.2 28?? 2.42 173
2024 06 21 13  04 44 00.538   -17 40 11.33  .14166 .92198  45.2 28?? 2.42 173
2024 06 21 14  04 44 01.132   -17 39 32.15  .14190 .92185  45.2 28?? 2.42 173